Change the Weather History Date:

Monday, October 13, 2014

  Actual Average Record
Temperature  
Mean Temperature 44 °F -  
Max Temperature 64 °F 58 °F 77 °F (2000)
Min Temperature 26 °F 33 °F 21 °F (2012)
Degree Days  
Heating Degree Days 20    
Moisture  
Dew Point 32 °F    
Average Humidity 85    
Maximum Humidity 100    
Minimum Humidity 39    
Precipitation  
Precipitation 0.00 in - - ()
Sea Level Pressure  
Sea Level Pressure 30.30 in    
Wind  
Wind Speed 1 mph (SSW)    
Max Wind Speed 10 mph    
Max Gust Speed -    
Visibility 5 miles    
Events Fog    
Averages and records for this station are not official NWS values.
T = Trace of Precipitation, MM = Missing Value Source: NWS Daily Summary

Daily Weather History Graph

Daily Weather History Graph

Search for Another Location

Airport or City:

Trip Planner

Search our weather history database for the weather conditions in past years. The results will help you decide how hot, cold, wet, or windy it might be!

Date:

Astronomy

Oct. 13, 2014 Rise Set
Actual Time 6:55 AM EDT 6:03 PM EDT
Civil Twilight 6:26 AM EDT 6:32 PM EDT
Nautical Twilight 5:53 AM EDT 7:05 PM EDT
Astronomical Twilight 5:19 AM EDT 7:39 PM EDT
Moon 10:04 PM EDT (10/13) 12:14 PM EDT (10/13)
Length of Visible Light 12h 05m
Length of Day
11h 07m
Waning Gibbous, 70% of the Moon is Illuminated
Oct 13
Waning Gibbous
Oct 15
Last Quarter
Oct 23
New
Oct 30
First Quarter
Nov 6
Full

Hourly Weather History & Observations

Time (EDT) Temp. Windchill Dew Point Humidity Pressure Visibility Wind Dir Wind Speed Gust Speed Precip Events Conditions
12:02 AM 32.0 °F - 30.0 °F 92% 30.29 in 1.5 mi Calm Calm - N/A   Partly Cloudy
12:05 AM 32.0 °F - 30.0 °F 92% 30.29 in 1.0 mi Calm Calm - N/A   Mist
12:13 AM 32.0 °F 28.7 °F 30.0 °F 92% 30.29 in 1.5 mi NNW 3.5 mph - N/A   Clear
12:15 AM 32.0 °F - 30.0 °F 92% 30.29 in 2.0 mi Calm Calm - N/A   Partly Cloudy
12:23 AM 30.9 °F - 30.0 °F 96% 30.30 in 5.0 mi Calm Calm - N/A   Partly Cloudy
12:37 AM 30.0 °F - 28.9 °F 96% 30.30 in 1.8 mi Calm Calm - N/A   Partly Cloudy
12:46 AM 30.9 °F - 30.0 °F 96% 30.30 in 3.0 mi Calm Calm - N/A   Clear
12:54 AM 30.9 °F - 28.9 °F 92% 30.31 in 9.0 mi Calm Calm - N/A   Clear
1:03 AM 30.9 °F - 30.0 °F 96% 30.30 in 1.2 mi Calm Calm - N/A   Clear
1:11 AM 30.9 °F - 28.9 °F 92% 30.30 in 0.8 mi Calm Calm - N/A   Mist
1:15 AM 30.9 °F - 30.0 °F 96% 30.30 in 1.5 mi Calm Calm - N/A   Partly Cloudy
1:18 AM 30.9 °F - 30.0 °F 96% 30.30 in 3.0 mi Calm Calm - N/A   Partly Cloudy
1:35 AM 30.0 °F - 28.0 °F 92% 30.30 in 1.8 mi Calm Calm - N/A   Scattered Clouds
1:39 AM 30.0 °F - 28.9 °F 96% 30.30 in 1.0 mi Calm Calm - N/A   Mist
1:45 AM 30.0 °F - 28.0 °F 92% 30.30 in 1.5 mi Calm Calm - N/A   Partly Cloudy
1:48 AM 30.2 °F - 28.4 °F 93% 30.30 in 3.0 mi Calm Calm - N/A   Partly Cloudy
1:54 AM 30.9 °F - 28.9 °F 92% 30.31 in 10.0 mi Calm Calm - N/A   Clear
2:08 AM 30.0 °F - 28.9 °F 96% 30.30 in 4.0 mi Calm Calm - N/A   Scattered Clouds
2:11 AM 30.0 °F - 28.0 °F 92% 30.30 in 1.5 mi Calm Calm - N/A   Mostly Cloudy
2:16 AM 30.0 °F - 28.0 °F 92% 30.30 in 0.8 mi Calm Calm - N/A   Mist
2:24 AM 28.9 °F - 28.0 °F 96% 30.30 in 1.2 mi Calm Calm - N/A   Scattered Clouds
2:27 AM 30.0 °F - 28.0 °F 92% 30.30 in 2.5 mi Calm Calm - N/A   Scattered Clouds
2:34 AM 30.0 °F - 28.0 °F 92% 30.30 in 4.0 mi Calm Calm - N/A   Mostly Cloudy
2:42 AM 28.9 °F - 28.0 °F 96% 30.30 in 8.0 mi Calm Calm - N/A   Partly Cloudy
2:54 AM 28.9 °F - 27.0 °F 92% 30.32 in 6.0 mi Calm Calm - N/A   Partly Cloudy
3:54 AM 28.9 °F - 27.0 °F 92% 30.30 in 10.0 mi Calm Calm - N/A   Mostly Cloudy
4:05 AM 28.9 °F - 28.0 °F 96% 30.29 in 1.8 mi Calm Calm - N/A   Mostly Cloudy
4:08 AM 28.9 °F - 28.0 °F 96% 30.29 in 0.8 mi Calm Calm - N/A   Mist
4:22 AM 30.9 °F - 28.9 °F 92% 30.29 in 0.2 mi Calm Calm - N/A Fog Light Freezing Fog
4:54 AM 28.9 °F - 27.0 °F 92% 30.31 in 0.8 mi Calm Calm - N/A   Mist
5:17 AM 28.0 °F - 26.1 °F 92% 30.31 in 0.2 mi Calm Calm - N/A Fog Light Freezing Fog
5:54 AM 28.0 °F - 27.0 °F 96% 30.33 in 0.2 mi Calm Calm - N/A Fog Light Freezing Fog
6:32 AM 27.0 °F - 25.0 °F 92% 30.32 in 1.8 mi Calm Calm - N/A   Mostly Cloudy
6:34 AM 27.0 °F - 25.0 °F 92% 30.32 in 3.0 mi Calm Calm - N/A   Mostly Cloudy
6:54 AM 26.1 °F - 24.1 °F 92% 30.34 in - Calm Calm - N/A   Mostly Cloudy
6:58 AM 26.1 °F - 24.1 °F 92% 30.32 in 0.8 mi Calm Calm - N/A   Mist
7:09 AM 27.0 °F - 25.0 °F 92% 30.33 in 1.8 mi Calm Calm - N/A   Mostly Cloudy
7:11 AM 27.0 °F - 25.0 °F 92% 30.33 in 4.0 mi Calm Calm - N/A   Mostly Cloudy
7:18 AM 27.0 °F - 25.0 °F 92% 30.33 in 1.2 mi Calm Calm - N/A   Overcast
7:25 AM 28.0 °F - 26.1 °F 92% 30.33 in 0.2 mi Calm Calm - N/A Fog Light Freezing Fog
7:41 AM 28.0 °F - 27.0 °F 96% 30.34 in 0.5 mi Calm Calm - N/A Fog Light Freezing Fog
7:51 AM 30.2 °F - 28.4 °F 93% 30.34 in 0.2 mi Calm Calm - N/A Fog Light Freezing Fog
7:54 AM 30.0 °F - 30.0 °F 100% 30.36 in 0.2 mi Calm Calm - N/A Fog Light Freezing Fog
8:34 AM 33.1 °F - 33.1 °F 100% 30.34 in 0.8 mi Calm Calm - N/A   Mist
8:41 AM 35.1 °F - 35.1 °F 100% 30.34 in 1.0 mi Calm Calm - N/A   Mist
8:45 AM 36.0 °F - 35.1 °F 97% 30.34 in 2.0 mi Calm Calm - N/A   Mostly Cloudy
8:54 AM 37.0 °F - 36.0 °F 96% 30.36 in 10.0 mi Calm Calm - N/A   Scattered Clouds
9:54 AM 46.0 °F - 37.0 °F 71% 30.35 in 10.0 mi Calm Calm - N/A   Clear
10:54 AM 52.0 °F - 39.9 °F 63% 30.33 in 10.0 mi Calm Calm - N/A   Clear
11:54 AM 62.1 °F - 37.0 °F 39% 30.30 in 10.0 mi South 10.4 mph - N/A   Clear
12:54 PM 63.0 °F - 37.9 °F 40% 30.28 in 10.0 mi SSW 8.1 mph - N/A   Mostly Cloudy
1:54 PM 63.0 °F - 39.9 °F 43% 30.27 in 10.0 mi Variable 4.6 mph - N/A   Overcast
2:54 PM 61.0 °F - 41.0 °F 48% 30.26 in 10.0 mi Variable 4.6 mph - N/A   Overcast
3:54 PM 57.9 °F - 42.1 °F 56% 30.27 in 10.0 mi SSW 9.2 mph - N/A   Overcast
4:54 PM 57.0 °F - 43.0 °F 59% 30.27 in 10.0 mi SSW 6.9 mph - N/A   Overcast
5:05 PM 57.0 °F - 44.1 °F 62% 30.26 in 10.0 mi South 6.9 mph - N/A   Overcast
5:18 PM 57.0 °F - 44.1 °F 62% 30.25 in 10.0 mi South 5.8 mph - N/A   Overcast
5:54 PM 57.0 °F - 44.1 °F 62% 30.26 in 10.0 mi SSW 4.6 mph - N/A   Overcast
6:54 PM 55.9 °F - 45.0 °F 67% 30.28 in 10.0 mi SSW 3.5 mph - N/A   Overcast
7:54 PM 55.9 °F - 45.0 °F 67% 30.27 in 10.0 mi South 3.5 mph - N/A   Overcast
8:54 PM 55.9 °F - 46.0 °F 69% 30.26 in 10.0 mi Variable 4.6 mph - N/A   Mostly Cloudy
9:54 PM 55.0 °F - 46.0 °F 72% 30.25 in 10.0 mi SSE 3.5 mph - N/A   Mostly Cloudy
10:54 PM 53.1 °F - 46.0 °F 77% 30.23 in 10.0 mi South 3.5 mph - N/A   Clear
11:54 PM 50.0 °F - 46.0 °F 86% 30.22 in 10.0 mi Calm Calm - N/A   Clear